Helicity
18 14 17 17 16 18 21 19 22 21 19 18 17 18 17 27 24 42 45 73 63 26 3 15 -28 -32 -39 3 -19 -20 46 68 74 63 35 8 24 24 57 65 26 15 46 38 51
8 7 7 15 16 15 20 19 20 22 22 19 15 13 13 16 29 10 59 73 54 36 40 39 46 16 -27 -9 -9 -5 16 19 11 7 11 10 25 18 59 70 89 54 40 19 14
12 14 13 15 21 22 21 16 15 24 28 31 21 10 11 20 37 27 59 59 48 36 53 66 80 44 16 -2 -17 -9 5 20 30 4 7 2 25 33 80 71 96 53 16 14 39
19 23 26 28 27 31 18 16 19 22 28 32 22 10 12 36 75 33 60 47 42 36 46 39 48 58 36 41 23 19 -6 13 -17 3 5 22 7 32 72 32 28 44 104 74 69
30 36 45 50 48 39 31 37 31 20 14 19 14 16 29 52 43 49 52 44 37 50 54 56 61 61 53 40 1 32 25 -11 -19 -2 20 80 48 33 71 63 34 11 56 130 92
46 59 73 70 56 37 33 36 17 8 6 21 20 22 34 64 35 50 45 36 52 50 47 58 66 63 54 63 52 47 71 39 25 19 24 84 24 -15 12 30 30 16 58 119 176
39 46 67 68 69 40 36 13 -2 -6 3 24 25 39 57 60 27 43 43 65 53 61 63 61 53 67 57 33 89 51 61 104 34 30 18 129 8 38 51 -5 -108 -61 47 145 198
30 43 52 60 68 65 65 37 27 26 23 39 34 32 51 6 22 34 26 64 62 63 52 47 43 75 73 96 43 32 59 103 23 23 11 100 93 42 47 4 -136 17 141 152 269
17 33 44 48 55 73 66 39 35 21 10 40 35 35 36 18 26 23 59 70 48 68 56 44 50 73 46 53 43 26 54 68 53 37 45 46 100 69 91 -10 -127 145 274 212 203
29 32 41 39 22 43 3 99 54 20 27 43 25 37 13 23 25 22 52 68 54 63 52 62 73 79 53 18 72 73 65 76 66 83 93 124 92 117 69 -59 -34 420 434 169 97
24 29 36 31 20 -8 -4 33 21 39 35 24 13 5 5 16 31 43 60 47 63 78 79 95 106 71 66 80 89 97 89 83 87 62 117 163 204 98 41 -73 14 391 403 250 177
22 31 48 39 11 11 8 -14 23 76 32 -4 5 8 14 32 47 46 41 71 68 73 89 91 99 87 81 69 27 65 82 68 59 28 89 236 202 153 17 -14 81 285 337 247 274
11 22 59 57 8 41 6 7 68 50 66 20 3 14 22 34 51 53 60 55 73 81 83 112 93 77 71 52 22 47 87 71 74 8 46 319 208 194 57 39 10 172 246 127 196
8 8 57 81 60 53 70 60 81 37 66 24 29 37 39 52 59 64 61 75 74 77 86 101 92 79 57 48 50 45 61 67 48 51 58 90 135 131 82 44 35 24 7 44 113
-5 6 26 20 72 79 90 83 66 35 126 66 47 39 51 62 59 54 54 77 72 67 106 74 83 63 51 50 51 45 74 77 76 74 27 55 98 78 45 8 23 18 23 -22 60
-4 11 5 63 81 91 74 82 54 78 105 54 69 79 61 78 69 45 59 69 68 71 78 91 95 76 55 60 62 39 31 47 71 60 53 101 103 18 3 15 8 5 -2 12 15
16 22 42 95 87 63 73 96 73 101 63 70 82 77 82 72 68 79 66 80 79 83 70 59 66 63 45 41 43 27 33 34 39 51 73 108 61 76 70 38 29 14 2 -10 22
21 42 66 94 73 56 85 81 110 84 86 87 89 83 94 78 74 71 80 100 80 76 68 50 36 55 38 43 41 23 34 55 43 43 52 71 58 60 108 95 59 41 20 6 8
13 73 78 85 54 66 93 91 75 94 90 84 59 90 88 108 100 92 94 112 96 90 76 61 50 86 68 49 46 35 47 43 49 29 26 42 75 48 89 102 96 79 63 54 37
43 67 84 59 59 107 103 88 108 102 104 93 107 84 106 102 112 135 120 109 111 105 83 65 56 44 45 46 39 45 30 69 53 77 52 37 59 43 92 102 102 87 88 90 74
68 80 97 58 102 103 98 93 95 76 98 101 119 103 102 111 112 119 132 126 108 104 102 71 92 55 54 70 79 62 56 46 54 80 88 60 51 26 91 126 121 102 99 87 80
110 114 122 110 110 75 70 81 79 90 103 109 102 77 89 102 108 121 143 127 134 143 122 104 116 105 83 77 84 94 107 96 96 97 96 88 69 97 126 150 153 108 99 95 88
117 101 72 85 135 106 48 79 93 104 92 119 106 89 106 117 123 127 145 139 146 165 166 135 134 107 57 84 81 92 112 100 98 97 103 154 96 118 172 184 136 134 118 110 108
114 109 97 97 81 95 92 86 86 92 97 108 109 132 121 118 119 129 194 146 141 164 181 195 182 181 176 116 112 19 36 75 126 132 125 176 159 138 180 200 170 155 146 110 97
128 119 111 113 114 110 121 130 139 145 130 124 111 110 106 126 149 145 126 139 164 183 192 223 256 180 136 95 76 74 68 61 100 160 179 127 135 118 205 245 176 184 165 155 136
138 134 125 124 134 137 163 140 147 128 146 166 159 113 87 142 183 157 157 162 156 208 240 263 264 210 175 104 96 105 88 104 81 101 146 167 205 239 382 331 257 189 174 166 154
146 185 182 163 140 179 156 125 131 161 110 141 190 182 81 112 163 98 130 183 205 236 261 341 286 273 188 114 122 129 123 141 146 169 131 146 187 307 347 302 249 228 211 183 153
Wind_Speed
6 9 8 8 8 4 2 4 6 11 9 6 4 4 3 6 10 29 37 38 42 46 51 57 59 59 47 46 48 41 40 45 49 52 55 61 63 61 64 60 65 59 65 68 75
6 9 15 19 21 17 12 7 1 5 6 7 7 6 7 5 26 29 34 40 42 43 50 55 54 61 52 45 44 45 43 47 49 50 58 62 63 62 62 64 69 71 75 76 78
10 8 6 11 15 17 14 11 6 2 4 7 7 8 10 13 28 31 34 38 38 39 35 32 33 44 48 46 48 45 45 46 46 53 54 57 57 56 61 61 75 80 80 78 77
15 9 9 12 15 18 14 10 10 9 2 5 8 12 15 26 31 29 33 32 33 35 34 42 43 47 48 42 42 42 44 46 46 51 56 56 54 54 59 68 72 77 77 74 78
16 13 13 14 19 19 15 14 13 9 3 10 15 20 27 32 32 29 30 27 29 30 32 38 48 47 48 45 43 40 46 48 50 49 55 54 60 45 69 77 81 83 79 76 74
10 13 15 19 20 15 16 18 11 4 12 16 23 28 30 33 31 32 31 30 32 32 32 37 38 36 35 36 38 35 42 37 41 52 49 52 56 58 73 80 88 87 82 75 71
14 21 24 29 23 16 16 11 6 14 24 29 31 31 34 34 32 31 30 32 36 34 34 34 32 38 36 36 36 28 41 45 47 52 52 39 58 59 68 86 95 92 82 74 68
28 37 38 35 30 21 15 11 24 34 38 37 33 32 36 31 31 37 33 31 33 32 33 30 32 33 37 28 33 37 41 39 51 53 31 36 32 69 84 92 100 92 80 69 63
49 47 49 52 35 33 19 24 36 41 38 37 34 34 37 31 34 33 34 35 31 31 31 31 33 39 41 44 44 43 35 40 43 44 32 44 42 62 59 61 97 78 67 59 48
45 45 43 50 49 48 41 44 39 33 35 29 30 35 36 36 30 29 30 33 35 32 36 38 40 43 47 52 48 36 30 35 39 25 43 51 48 63 62 48 47 34 26 39 34
42 44 43 46 26 55 70 52 57 45 53 43 36 34 35 35 33 33 33 33 33 36 43 39 44 50 40 38 31 26 28 34 29 28 36 44 51 44 62 50 44 34 21 7 24
34 38 49 51 24 56 64 62 57 42 40 39 40 37 35 40 38 40 40 38 37 40 40 41 41 39 32 42 42 38 34 33 25 25 25 33 39 44 48 63 70 41 37 15 21
25 30 40 40 32 54 63 58 44 39 34 37 39 40 39 41 36 42 47 40 39 42 42 38 37 39 42 41 42 39 37 31 26 26 17 30 25 32 52 61 74 48 57 71 39
22 26 40 34 44 43 49 43 38 36 41 40 35 33 37 38 33 40 43 42 38 40 42 37 37 42 41 42 38 39 28 30 22 20 23 27 36 25 43 68 74 70 79 75 65
38 22 36 54 38 48 35 36 34 34 46 37 32 33 37 35 33 35 41 42 40 36 36 37 36 40 42 40 32 27 20 20 24 23 15 28 37 33 34 49 66 71 69 65 44
30 17 42 46 43 41 35 38 36 42 47 39 34 38 43 32 33 33 37 38 36 34 29 32 32 33 36 35 33 25 28 24 25 27 32 31 34 42 50 51 56 63 68 71 32
14 15 32 39 41 41 40 42 43 51 41 40 42 40 41 36 37 40 42 43 41 41 37 32 32 33 36 44 38 51 41 33 32 34 32 32 37 35 38 44 51 57 63 65 45
14 16 39 38 37 40 46 44 51 41 42 41 41 40 42 45 39 42 41 39 39 37 40 41 39 37 38 38 37 38 39 35 33 32 26 28 31 35 39 44 48 52 54 60 58
27 46 41 41 45 46 50 50 44 40 41 45 46 45 43 43 44 41 39 39 38 42 44 46 38 36 33 33 35 36 38 30 30 26 26 27 33 33 33 38 42 45 50 55 54
58 51 42 46 47 50 46 43 38 38 42 43 49 46 47 47 50 50 40 36 37 36 35 38 43 32 33 35 28 30 32 32 33 33 32 24 25 24 23 28 35 40 45 48 51
48 52 43 46 47 49 48 41 38 39 40 43 45 43 40 49 45 43 38 35 35 35 38 38 34 35 37 29 29 31 31 29 29 28 30 32 26 23 19 23 29 35 39 44 48
49 55 46 49 53 47 44 42 38 41 38 39 39 37 39 42 44 43 39 36 34 36 41 33 36 43 36 35 34 33 28 27 29 29 30 33 36 21 22 24 28 33 36 40 44
49 50 46 45 49 47 43 41 40 42 40 41 42 35 41 43 50 41 39 35 35 37 37 37 40 59 53 35 35 35 34 28 28 31 30 34 35 19 22 25 27 31 35 39 42
48 56 48 45 39 43 47 46 43 40 41 38 40 37 40 43 33 40 42 39 35 34 32 37 40 42 47 47 42 45 43 36 29 31 36 30 35 19 19 23 27 32 35 38 43
42 47 42 47 48 43 44 45 50 50 38 35 42 36 43 49 46 40 40 41 38 37 37 38 51 44 41 42 42 38 41 39 35 33 34 46 37 25 17 23 30 34 37 43 47
41 43 40 43 45 42 42 49 51 44 39 46 40 42 43 45 45 47 49 45 42 39 39 39 53 51 52 52 44 41 40 42 41 38 38 41 44 35 26 27 34 39 43 48 52
34 34 39 43 46 46 48 50 51 45 45 38 38 44 46 51 46 41 40 38 36 42 40 44 49 58 59 54 59 55 43 42 49 46 43 39 39 25 29 32 37 41 45 50 52
Wind_Direction
297 298 296 292 288 290 32 60 74 73 83 97 122 143 179 257 175 85 69 61 50 40 32 21 7 4 14 13 8 3 344 337 330 329 323 323 321 322 316 317 313 310 303 299 291
82 303 300 297 294 289 289 289 31 85 94 93 98 125 127 120 91 80 69 57 49 44 35 28 28 11 12 11 6 0 347 337 339 339 329 326 325 322 322 319 316 310 304 300 293
73 54 344 309 299 293 289 279 265 240 87 82 102 117 134 109 90 77 68 59 52 48 55 51 45 37 31 17 358 351 349 344 346 342 342 338 337 336 329 324 320 314 307 305 297
64 32 1 332 314 302 291 282 273 262 233 101 110 123 115 89 77 79 66 64 57 57 56 46 46 43 37 44 36 21 1 354 351 351 349 348 345 340 341 328 326 322 321 312 300
57 37 17 347 323 310 298 289 280 263 160 108 107 107 93 71 75 81 67 70 64 64 58 51 44 45 42 39 39 42 20 1 355 0 356 358 351 359 344 339 334 325 321 316 312
21 20 8 354 341 325 309 297 281 130 104 104 104 99 87 68 79 70 63 65 61 63 62 60 54 53 54 52 47 42 24 29 25 10 12 11 9 8 350 348 338 329 315 310 301
332 325 328 329 339 344 329 311 91 93 83 84 90 84 66 68 76 67 68 63 59 62 63 65 67 58 53 54 47 51 42 42 29 19 17 36 358 23 6 345 338 328 318 301 297
318 321 321 326 324 335 343 55 72 70 63 68 79 78 66 77 70 53 64 60 62 68 65 73 73 67 58 59 63 52 50 37 24 20 25 66 55 9 357 348 334 331 320 309 295
322 320 321 324 318 321 331 59 57 50 58 66 77 73 68 78 62 58 59 50 60 66 70 73 69 59 55 52 55 54 57 45 31 43 87 61 52 28 27 3 337 327 313 305 284
317 317 318 319 318 320 318 44 46 62 50 67 74 60 59 53 58 70 59 52 51 56 55 57 56 52 48 48 49 51 56 45 43 118 69 63 58 37 36 25 23 346 329 328 324
314 315 316 315 309 324 358 32 22 29 21 33 42 49 54 47 62 57 52 49 51 47 38 48 44 40 48 51 57 52 61 53 69 136 80 69 54 58 43 35 6 36 57 356 329
313 315 316 315 41 30 26 25 23 28 33 35 37 45 42 35 38 37 37 42 42 36 39 37 39 44 50 52 47 56 61 57 91 158 108 83 70 66 58 51 50 55 66 74 329
315 317 316 313 51 30 27 30 36 40 60 50 29 29 29 26 33 27 27 33 35 32 32 36 39 38 41 44 45 59 63 61 80 227 138 86 86 73 57 57 53 66 69 61 11
316 316 316 313 37 35 33 36 44 61 55 50 51 45 34 28 35 22 26 30 32 29 31 41 38 33 38 39 49 55 65 65 86 118 105 91 49 81 59 44 46 57 48 55 62
305 318 312 28 35 28 36 38 51 66 39 42 49 45 30 35 28 31 23 24 25 27 32 30 31 32 31 35 50 62 61 82 85 94 137 52 36 60 66 53 39 45 56 20 1
301 334 24 29 29 34 36 37 50 40 33 43 44 31 22 34 35 32 28 26 25 29 33 26 36 41 34 36 44 46 55 69 82 78 77 83 62 37 20 32 34 35 39 44 359
331 334 30 33 30 27 31 34 35 30 34 33 28 28 28 34 30 27 23 22 24 20 21 28 32 35 31 24 35 17 31 47 56 62 68 74 64 71 80 68 52 45 34 27 358
333 2 25 33 34 31 26 28 21 31 30 29 25 21 27 25 26 21 20 21 26 26 12 15 19 24 23 24 22 27 31 34 32 43 49 68 69 60 67 64 58 54 53 33 15
6 11 18 25 23 22 18 16 20 24 23 19 21 23 25 25 18 20 24 21 24 21 14 8 10 13 18 21 20 19 21 30 23 35 43 57 48 50 55 47 51 49 47 32 8
349 1 11 13 13 12 13 13 18 21 16 18 14 16 14 14 15 16 17 24 21 23 25 12 357 18 18 12 20 16 15 15 14 8 11 33 37 50 66 48 39 37 28 26 24
355 354 6 6 7 9 6 8 10 17 15 12 9 9 14 9 13 14 17 18 21 20 16 10 8 360 1 9 3 3 2 6 7 4 359 360 12 31 52 52 38 32 26 16 7
348 344 358 358 355 0 3 4 7 7 12 9 11 12 10 9 6 9 10 14 17 13 4 11 2 349 348 350 350 345 347 353 354 354 351 347 343 26 31 27 25 22 22 18 8
343 343 359 2 352 356 359 355 357 358 2 3 3 5 7 3 360 5 4 11 9 5 4 5 358 343 347 355 356 350 343 339 342 339 331 334 338 0 6 6 11 10 12 7 5
346 338 350 358 5 357 355 352 354 359 356 357 355 358 358 356 359 357 358 1 4 1 3 357 348 339 330 330 336 326 322 323 317 319 324 317 327 330 338 344 352 355 1 1 359
346 342 350 348 349 350 351 348 346 344 355 358 356 355 351 350 353 348 351 352 353 354 353 350 335 333 324 322 322 312 311 308 295 292 297 320 323 323 317 328 336 343 348 346 345
342 344 350 345 347 347 348 346 344 349 350 347 345 346 348 342 338 334 341 344 341 348 344 346 335 336 330 327 319 310 310 308 299 295 289 296 305 321 326 331 332 336 337 336 337
349 347 343 342 343 339 338 341 344 349 349 351 350 343 340 340 340 337 335 333 333 338 336 336 335 334 330 337 333 325 326 320 314 316 310 297 308 315 320 325 329 332 334 334 335